Regional Weather Roundup
Issued by NWS

Home | Current Version | Previous Version | Text Only | Print | Product List | Glossary On
Versions: 1 2 3 4 5 6 7 8 9 10 11 12 13 14 15 16 17 18 19 20 21 22 23 24 25 26 27 28 29 30 31 32 33 34 35 36 37 38 39 40 41 42 43 44 45 46 47 48 49 50
000
ASUS45 KCYS 190510
RWRWY

WYOMING REGIONAL WEATHER ROUNDUP
NATIONAL WEATHER SERVICE CHEYENNE WY
1100 PM MDT THU SEP 18 2014

NOTE:  "FAIR" INDICATES FEW OR NO CLOUDS BELOW 12,000 FEET
WITH NO SIGNIFICANT WEATHER AND/OR OBSTRUCTIONS TO VISIBILITY.

WYZ001-190600-
YELLOWSTONE NATIONAL PARK

CITY           SKY/WX    TMP DP  RH WIND       PRES   REMARKS
LK YELLOWSTONE   N/A     49  47  93 CALM      30.13S
W YELLOWSTONE  NOT AVBL

$$
WYZ002>013-054>058-071-098>099-190600-
NORTHERN WYOMING

CITY           SKY/WX    TMP DP  RH WIND       PRES   REMARKS
JACKSON        CLOUDY    54  52  94 S8        30.07R
CODY             N/A    N/A N/A N/A MISG        N/A
GREYBULL       LGT RAIN  64  57  78 N7        29.86R
WORLAND        CLOUDY    68  52  56 N7        29.90R
SHERIDAN       CLOUDY    62  54  74 W8        29.87F
BUFFALO        LGT RAIN  61  50  67 N15G28    29.92F
GILLETTE       CLOUDY    64  51  62 N7        29.86F
HULETT         FAIR      64  54  68 MISG      29.86
NEWCASTLE      FAIR      73  39  29 MISG      29.78

$$
WYZ014>020-022>026-101>103-190600-
CENTRAL WYOMING

CITY           SKY/WX    TMP DP  RH WIND       PRES   REMARKS
BIG PINEY      CLOUDY    57  44  62 N17       30.12R
PINEDALE       CLOUDY    55  45  67 NW21G28   30.13R
DUBOIS         RAIN      52  45  76 NW24G38   30.10F
LANDER         CLOUDY    67  44  43 N9        29.93R
RIVERTON       CLOUDY    71  41  33 NW26G35   29.93R
CASPER         PTCLDY    58  42  55 NW8       29.91R
DOUGLAS        PTCLDY    59  41  51 CALM      29.87R

$$
WYZ021-027>030-104>119-190600-
SOUTHERN WYOMING

CITY           SKY/WX    TMP DP  RH WIND       PRES   REMARKS
EVANSTON       PTCLDY    56  46  69 N18       30.10R
KEMMERER       MOCLDY    55  43  62 NW10      30.11R
FORT BRIDGER   FAIR      63  47  56 NW13      30.10R
ROCK SPRINGS   MOCLDY    68  38  33 SW13      30.02R
DIXON          FAIR      55  38  54 NE3       30.06S
RAWLINS        CLEAR     58  31  35 CALM      30.02F
SARATOGA       FAIR      52  36  54 S6        30.06S
LARAMIE        PTCLDY    57  35  43 S10       30.06S
CHEYENNE       CLEAR     66  44  45 S8        29.99F
TORRINGTON     CLEAR     61  55  81 E10       29.84F
PINE BLUFFS    FAIR      64  52  63 SE9       29.94S

$$



USA.gov is the U.S. government's official web portal to all federal, state and local government web resources and services.